{"data":{"norad_id":47802,"intl_designator":"2021-018R","name":"STARLINK-2383","alt_names":[],"object_type":"PAYLOAD","status":"ACTIVE","operator":null,"country":"US","launch_date":"2021-03-11","launch_site_code":"AFETR","launch_vehicle":null,"mission":null,"orbit_class":"UNKNOWN","rcs_meters":null,"size_class":null,"mass_kg":null,"dimensions":null,"purposes":["comms"],"wikipedia_slug":null,"has_3d_model":false,"image_url":null,"decayed_at":null,"tle_current":{"epoch":"2026-05-24T17:34:33.924576Z","epoch_age_seconds":108252,"freshness":"FRESH","line1":"1 47802U 21018R   26144.73233709  .00001241  00000+0  53993-4 0  9994","line2":"2 47802  53.1618 262.1419 0001203  77.8874 282.2262 15.30210464288197","mean_motion":15.30210464,"eccentricity":0.0001203,"inclination_deg":53.1618,"raan_deg":262.1419,"arg_perigee_deg":77.8874,"mean_anomaly_deg":282.2262,"bstar":5.3993e-5,"rev_number":28819,"period_min":94.104702188208,"perigee_km":474.35937148415,"apogee_km":476.00828047488,"semimajor_km":6853.3208259795,"source":"CELESTRAK","updated_at":"2026-05-25T13:38:16.600241Z"}}}